Location: ????
(30.1475°N, 31.1342°E)
Time: 00:45:24
(UTC+00:00)

ARIANE 5 R/B - Pass Details

Date: 01 April 2023
Orbit: 748 x 794 km, 98.8° (Epoch: 29 May)

Event Time Altitude Azimuth Distance (km) Brightness Sun altitude
Rises 01:07:45 0° 30° (NNE) 3,285 6.6 -33.3°
Reaches altitude 10° 01:10:33 10° 45° (NE) 2,357 5.8 -32.8°
Maximum altitude 01:14:37 23° 97° (E) 1,635 4.6 -32.0°
Enters shadow 01:18:09 12° 144° (SE) 2,202 4.9 -31.3°
